Lapse_Rate
4.8 3.9 4.3 4.1 3.5 3.8 3.2 3.5 3.5 4.8 4.2 3.8 3.2 1.3 1.1 1.1 1.8 2.0 1.9 2.4 2.6 2.7 2.2 1.4 1.7 2.1 2.5 3.3 3.8 4.7 5.1 5.3 5.4 5.7 6.2 6.1 6.0 6.2
5.3 4.9 4.7 4.4 4.1 3.4 4.0 3.1 2.7 4.6 4.7 3.6 3.4 2.8 1.9 1.8 2.4 2.4 2.5 2.8 2.6 2.6 2.3 1.7 1.5 1.5 2.2 2.5 2.6 3.0 3.1 3.6 3.9 4.6 5.1 5.1 5.3 5.3
5.3 6.2 5.0 4.4 3.8 3.4 3.4 3.3 3.5 3.7 4.3 5.2 3.0 2.2 2.3 2.2 2.1 2.4 2.4 1.9 1.7 1.6 1.5 1.5 1.4 1.2 0.9 1.4 1.3 1.4 1.9 2.0 2.2 1.9 1.4 2.0 2.8 3.0
5.8 5.9 5.8 4.6 4.0 3.9 3.7 3.7 4.0 3.7 4.5 4.3 3.8 2.6 1.6 1.0 0.7 0.9 0.7 0.7 0.6 -0.5 0.2 0.1 -0.4 -0.5 -0.4 -0.1 -0.4 -0.3 -0.3 -0.0 -0.3 -0.4 0.0 0.5 0.9 1.4
5.4 5.1 5.5 4.6 5.0 4.4 4.1 3.4 3.1 3.0 3.1 3.8 4.3 2.0 0.8 -0.6 -0.3 -0.7 -0.7 -0.9 -1.3 -1.6 -2.2 -2.3 -2.4 -1.9 -1.6 -1.4 -1.6 -1.5 -0.5 -0.4 0.0 -0.2 -0.1 0.6 1.2 2.0
5.7 4.6 4.8 4.4 5.1 4.7 4.7 4.6 3.9 3.5 3.3 3.8 3.9 3.7 1.6 -1.0 -0.8 -0.5 -1.6 -1.4 -0.8 -1.0 -1.7 -1.6 -1.6 -1.5 -1.6 -1.5 -0.5 -0.8 0.9 1.5 1.3 1.0 1.1 0.8 0.8 1.1
5.8 5.1 4.5 3.7 2.2 3.5 4.6 4.2 3.8 3.7 4.0 4.1 4.3 3.8 0.6 -1.6 -0.8 -0.6 -0.2 -1.8 -2.6 -1.6 0.3 0.6 1.2 1.4 0.1 0.3 1.1 1.0 1.2 1.4 1.2 1.3 1.4 1.4 1.8 2.3
5.3 4.5 4.3 1.1 1.0 -1.9 -2.6 -3.8 -3.1 3.3 4.5 4.6 4.8 3.0 0.6 -2.1 -2.4 -2.0 -2.5 -1.7 -0.2 -3.1 0.2 -0.6 0.8 0.9 2.0 2.4 1.9 1.7 1.4 1.2 2.1 2.8 2.4 2.5 2.8 3.5
4.2 3.6 1.0 -1.0 -2.1 -3.4 -4.5 -4.9 -5.0 -4.9 -5.9 -0.9 1.9 -1.9 -3.0 -3.3 -2.8 -3.0 -2.6 -1.2 -1.6 -2.0 0.2 0.6 0.2 0.7 1.4 2.3 3.5 3.2 3.8 3.1 3.1 3.2 3.6 4.1 4.1 4.3
3.3 3.3 2.2 -0.7 -2.5 -3.6 -4.8 -5.5 -5.4 -5.6 -5.9 -6.0 -6.3 -5.7 -5.2 -4.6 -3.4 -2.4 -0.7 -1.4 -1.1 -0.7 -0.0 1.5 0.6 0.8 1.1 2.6 4.3 3.3 2.2 2.4 2.7 3.3 3.8 4.3 4.3 4.5
-0.7 -0.4 0.6 -1.5 -3.5 -3.7 -4.6 -5.0 -5.0 -4.9 -4.7 -4.9 -5.0 -4.9 -4.1 -2.1 -0.6 0.5 0.6 1.5 1.7 0.7 -0.5 1.7 1.7 2.2 2.2 2.4 2.8 2.7 2.7 3.0 3.6 3.3 3.4 3.9 4.5 5.1
-4.0 -3.9 -3.2 -3.0 -3.3 -3.9 -4.4 -4.5 -5.1 -4.6 -3.2 -1.9 -1.7 -1.6 -1.6 -1.5 -1.9 -1.1 0.5 1.2 1.8 1.7 0.8 2.0 1.3 1.6 2.1 3.8 3.4 3.1 2.0 2.5 3.1 3.6 3.8 4.3 4.7 5.0
-4.5 -4.5 -4.2 -3.8 -3.3 -3.1 -3.3 -2.7 -2.5 -1.1 -0.2 -0.6 -0.9 -1.4 -1.6 -1.6 -1.2 -1.6 -0.6 1.2 2.2 0.8 0.5 1.5 2.3 2.9 3.1 4.1 4.0 3.6 3.1 2.8 2.7 2.7 2.9 3.3 4.2 4.7
-1.3 -1.6 -1.1 -1.0 -0.8 0.2 0.3 0.5 0.3 -0.0 -0.1 -0.3 -0.3 -0.7 -0.7 -0.6 -0.9 -0.5 0.1 -0.3 0.6 1.1 1.2 1.7 2.8 2.8 3.0 3.4 3.7 4.0 3.9 3.6 4.0 4.3 4.6 4.7 4.1 4.2
-0.5 2.0 2.3 2.4 1.7 0.8 0.8 0.4 0.2 0.3 0.0 -0.6 -1.0 -0.5 -0.4 0.7 0.3 0.5 1.3 1.6 2.3 2.6 2.4 2.4 2.7 3.3 3.5 3.8 4.1 3.9 4.7 5.2 4.7 5.5 4.8 4.6 4.8 5.0
-1.2 -0.1 0.0 -0.4 -1.0 0.0 1.1 1.1 0.4 0.3 -0.1 -0.1 0.2 0.2 0.5 0.5 0.7 1.4 1.3 2.1 2.0 2.2 2.9 3.0 3.4 3.0 2.4 3.1 3.6 4.0 5.0 5.2 5.8 6.0 5.4 4.8 4.6 5.1
-0.1 -0.1 0.2 0.7 0.7 0.6 0.5 0.2 0.3 0.6 -0.7 -0.3 -0.2 0.1 0.5 1.0 0.5 1.0 1.0 1.3 1.5 2.1 2.4 2.6 2.7 2.5 3.0 3.4 2.9 4.6 4.8 5.0 4.7 5.3 5.1 4.2 4.3 5.0
0.8 0.5 0.5 0.5 0.2 0.4 0.9 0.5 0.3 0.2 0.4 0.8 0.8 0.9 0.9 1.1 1.1 1.2 1.4 1.2 1.3 1.8 2.1 2.1 1.8 1.5 1.9 2.1 3.8 5.1 4.6 5.0 4.7 4.4 5.1 4.7 2.9 4.1
-0.5 0.3 0.4 0.6 0.9 1.3 0.7 0.6 0.3 0.5 0.6 0.3 0.3 0.5 0.9 1.1 1.0 1.0 0.7 1.0 1.5 2.0 2.3 2.8 2.6 2.3 1.6 1.7 1.5 3.4 5.4 3.9 3.8 3.4 4.1 4.4 3.6 2.6
-0.5 -0.1 0.4 0.4 0.9 1.1 1.2 0.9 0.4 0.3 0.3 -0.2 -0.7 -0.8 0.0 0.6 0.5 0.5 0.5 -0.1 1.0 2.1 2.8 3.0 2.6 2.8 3.5 4.1 4.0 2.0 3.3 4.1 4.3 3.6 3.3 2.9 2.7 2.4
-1.0 -1.0 -0.7 -0.2 0.0 0.1 -0.5 -0.9 -1.2 -1.4 -1.4 -1.9 -2.1 -2.1 -2.6 -0.2 -0.4 -0.2 0.1 -0.8 0.1 1.6 1.9 2.3 2.9 2.8 3.3 3.0 1.9 1.8 1.7 2.9 3.6 3.5 2.6 1.9 2.0 2.7
-0.5 -0.8 -0.3 -0.2 -0.5 -0.8 -1.2 -1.4 -1.5 -1.7 -2.0 -2.0 -4.3 -3.8 -3.3 -1.1 -1.2 -1.3 -1.3 -0.5 0.5 1.1 1.7 2.2 2.2 2.2 2.6 3.0 2.9 2.1 1.3 0.9 1.0 2.6 2.9 3.2 3.1 2.3
-1.4 -1.4 -1.4 -1.4 -1.2 -1.3 -0.8 -1.7 -2.2 -2.9 -1.8 -2.1 -1.7 -2.2 -4.7 -2.0 -1.4 -1.0 -1.0 -0.5 0.4 0.8 1.0 1.0 1.3 1.8 2.2 2.4 2.2 1.9 1.0 0.8 1.0 1.6 3.1 3.4 4.9 3.1
Wind_Speed
3 6 3 3 3 3 4 3 4 2 3 3 3 7 13 16 22 19 21 24 27 28 30 30 29 27 27 28 30 30 30 30 31 30 33 31 30 29
4 5 6 3 5 3 3 3 3 4 3 3 4 4 6 11 18 18 20 21 18 18 19 19 20 21 23 24 25 25 24 25 27 26 26 25 25 22
10 9 6 6 5 4 3 3 4 4 5 6 5 4 4 6 6 11 13 11 9 7 7 8 8 10 13 14 17 17 15 15 12 7 9 10 10 11
11 9 11 5 5 5 5 8 7 7 6 12 4 4 6 3 2 3 3 3 4 2 3 5 7 8 9 10 11 11 10 10 10 12 12 11 10 10
8 9 10 8 9 7 7 7 7 6 8 7 8 3 2 1 1 0 1 4 8 10 15 17 21 20 20 19 19 18 16 14 13 12 10 10 11 12
10 8 10 9 10 8 7 9 7 6 7 8 8 7 5 2 2 2 2 1 2 8 14 13 15 18 18 18 17 16 14 13 15 15 15 15 14 13
14 11 10 11 13 10 7 9 9 8 7 8 8 8 3 3 3 2 2 3 5 5 3 7 9 11 14 15 14 18 18 17 15 13 14 14 14 15
13 12 10 10 7 8 10 14 7 8 10 9 9 6 3 2 2 3 3 3 3 9 2 5 9 6 10 14 13 15 16 15 14 15 15 16 17 17
13 11 6 5 9 9 13 14 14 14 5 3 3 2 2 1 3 2 2 2 3 3 1 3 4 4 12 10 10 13 14 15 16 18 19 20 19 19
14 14 12 10 10 11 10 10 10 10 7 8 10 8 8 7 7 5 6 7 7 7 7 2 2 3 6 4 7 10 15 15 16 19 22 23 22 22
5 5 8 9 17 21 14 15 14 13 25 31 31 30 28 25 14 5 5 4 3 3 7 2 3 3 2 1 6 13 15 15 20 24 22 21 21 22
4 4 4 9 19 20 15 16 15 10 10 12 11 20 23 24 25 16 6 5 4 3 6 3 3 4 3 1 7 12 11 16 22 19 19 17 20 20
5 6 7 19 18 17 16 11 14 13 13 11 10 9 9 10 12 17 15 7 6 6 6 3 4 2 2 3 5 7 11 15 15 17 16 18 26 26
8 9 13 25 27 26 21 25 22 13 9 9 8 8 8 7 8 13 15 15 15 11 9 8 2 4 3 3 3 5 10 15 14 13 12 21 22 24
13 20 30 28 28 23 25 24 15 9 8 9 9 7 8 7 12 10 10 12 14 13 12 11 6 4 2 4 5 7 9 7 14 8 16 15 14 20
17 15 18 18 19 15 13 13 9 8 9 8 8 7 7 7 7 5 6 4 6 6 9 10 8 8 4 5 6 8 8 6 9 9 12 16 19 20
14 12 11 10 10 9 8 9 8 7 9 8 8 7 7 6 7 5 6 5 5 4 5 8 12 12 6 8 5 6 8 9 9 10 13 12 11 16
12 10 10 9 9 8 8 8 7 9 8 8 7 7 6 6 6 6 5 5 5 5 5 6 8 7 5 4 7 7 8 9 10 11 12 11 14 13
11 9 9 7 7 8 7 7 7 7 8 7 7 6 6 6 5 5 5 5 5 4 5 6 6 6 8 6 6 13 9 11 11 11 9 10 13 15
10 9 8 7 7 7 6 6 7 6 6 7 7 6 5 5 5 5 5 5 5 4 4 5 6 6 6 5 7 10 19 11 10 12 12 10 13 29
8 9 7 7 6 7 6 6 6 5 5 5 5 6 4 4 4 4 4 5 3 5 5 6 6 13 12 10 6 7 10 17 20 12 13 10 9 4
8 8 7 7 6 6 5 5 5 5 5 5 4 4 3 3 4 4 4 4 4 4 5 6 9 7 5 7 9 12 10 13 26 21 18 15 5 3
7 7 6 6 5 4 5 4 5 4 4 4 4 3 3 3 3 3 3 4 4 5 5 6 6 6 6 7 10 10 15 14 10 11 8 10 16 25
Wind_Direction
180 164 154 196 160 197 150 150 146 265 286 244 256 210 218 224 235 236 238 248 250 255 258 252 250 251 252 252 255 255 257 257 258 262 262 259 260 264
210 181 206 189 194 178 172 181 128 177 226 204 240 247 229 237 246 237 243 254 264 268 268 263 263 267 269 268 267 266 268 272 273 269 264 259 261 258
213 199 209 197 183 164 165 164 183 174 207 264 236 218 229 233 240 246 258 256 265 259 264 270 269 265 263 269 271 275 280 285 297 337 21 1 338 325
205 188 213 197 175 193 188 201 208 200 206 247 239 248 222 215 222 213 214 183 163 106 144 106 78 72 59 50 45 36 45 46 46 36 21 11 1 346
188 202 211 190 210 200 199 207 214 211 219 236 250 227 222 165 191 91 106 83 87 94 86 83 86 82 75 66 65 54 46 51 31 21 9 350 338 326
222 207 214 196 220 221 223 233 227 214 219 230 249 243 208 179 179 177 174 99 83 85 77 80 86 81 69 60 50 54 48 44 47 47 37 32 23 8
226 228 217 205 203 204 212 225 215 220 227 234 243 253 206 176 192 161 117 96 60 19 70 50 51 54 58 56 58 71 68 61 51 35 22 13 2 351
226 231 234 210 209 83 78 70 56 234 237 242 243 220 196 140 127 149 141 153 152 25 17 54 52 39 22 27 77 66 58 41 25 15 8 360 349 339
217 216 201 170 146 127 105 88 66 55 45 295 274 55 102 80 108 115 66 72 100 20 1 91 37 43 18 14 51 56 35 24 18 14 2 352 343 334
214 213 205 185 166 143 120 97 81 66 61 79 87 85 80 68 78 105 81 88 109 54 11 87 34 34 357 2 53 43 23 22 13 355 341 332 327 321
201 207 197 170 159 147 128 118 104 93 84 88 88 82 74 67 67 91 69 118 96 53 21 24 28 337 317 211 8 14 11 8 353 340 335 331 327 327
88 62 114 139 145 144 136 134 122 118 107 89 75 66 61 58 56 48 43 87 95 112 14 51 38 7 331 1 348 357 4 347 338 333 330 331 330 324
119 103 101 107 113 111 102 105 109 112 102 95 89 80 72 63 54 59 52 36 76 82 29 32 51 23 328 314 314 325 348 329 321 322 325 326 322 320
59 86 94 104 102 98 101 103 99 97 92 80 68 76 70 69 67 62 67 72 73 80 60 45 77 35 355 307 302 319 325 317 316 319 310 311 311 309
106 93 91 86 88 86 86 86 81 89 89 86 86 62 67 66 66 66 72 82 75 64 57 43 44 12 327 300 301 311 326 322 313 312 313 310 307 306
87 82 79 79 75 75 71 67 69 72 86 87 87 84 76 70 65 54 53 54 65 51 42 31 19 1 328 309 304 305 312 312 306 307 307 304 299 294
95 90 86 78 76 70 67 71 73 76 79 83 87 86 83 77 67 56 54 57 67 25 14 10 4 345 312 302 305 300 305 309 309 313 313 301 299 297
73 72 70 75 79 80 79 72 65 71 78 80 78 81 78 73 62 56 50 52 47 28 14 4 360 358 354 296 267 304 306 304 308 305 307 304 303 305
76 73 74 74 74 78 75 82 76 68 69 68 75 74 77 77 74 55 43 44 35 19 9 6 6 11 358 330 292 305 316 309 308 307 305 301 300 302
81 82 77 73 76 76 76 81 79 73 72 76 72 69 65 68 59 49 37 29 20 1 357 3 10 0 330 303 306 293 305 304 306 305 305 299 290 291
75 74 76 80 80 84 80 74 75 74 76 75 68 68 59 71 60 46 30 24 2 12 352 347 336 317 302 293 291 294 304 306 305 302 301 301 311 311
74 82 76 73 77 84 82 87 90 85 78 72 72 71 62 64 63 47 32 14 5 353 321 320 326 328 325 323 309 306 307 317 319 309 292 262 263 294
72 73 70 75 74 69 82 77 84 77 78 82 84 76 54 54 39 40 27 9 347 336 334 334 330 330 326 315 313 311 309 316 324 331 329 319 283 241